| time (UTC) | temp C | wind direction | speed KPH | gust KPH | rain 1hr cm | rain 24hr cm | rain mn cm | humidity % | barometer mb |
| 20260505034535 | 12 | 169 | 1.6 | 6.4 | 0.00 | 0.00 | 0.00 | 85 | 1008.8 |
| 20260505033047 | 12 | 161 | 1.6 | 4.8 | 0.00 | 0.00 | 0.00 | 84 | 1008.7 |
| 20260505031537 | 12 | 163 | 1.6 | 3.2 | 0.00 | 0.00 | 0.00 | 83 | 1008.6 |
| 20260505030047 | 12 | 163 | 0.0 | 6.4 | 0.00 | 0.00 | 0.00 | 82 | 1008.5 |
| 20260505024603 | 13 | 159 | 1.6 | 4.8 | 0.00 | 0.00 | 0.00 | 82 | 1008.5 |
| 20260505023042 | 13 | 153 | 1.6 | 4.8 | 0.00 | 0.00 | 0.00 | 80 | 1008.6 |
| 20260505021547 | 13 | 153 | 1.6 | 4.8 | 0.00 | 0.00 | 0.00 | 79 | 1008.6 |
| 20260505020048 | 14 | 153 | 1.6 | 4.8 | 0.00 | 0.00 | 0.00 | 77 | 1008.7 |
| 20260505014547 | 15 | 153 | 1.6 | 4.8 | 0.00 | 0.00 | 0.00 | 74 | 1008.8 |
| 20260505013043 | 16 | 157 | 1.6 | 4.8 | 0.00 | 0.00 | 0.00 | 74 | 1009.0 |
| 20260505011550 | 16 | 159 | 1.6 | 4.8 | 0.00 | 0.00 | 0.00 | 73 | 1009.0 |
| 20260505010040 | 16 | 161 | 0.0 | 3.2 | 0.00 | 0.00 | 0.00 | 71 | 1009.1 |
| 20260505004543 | 17 | 161 | 1.6 | 3.2 | 0.00 | 0.00 | 0.00 | 71 | 1009.0 |
| 20260505003037 | 17 | 162 | 0.0 | 4.8 | 0.00 | 0.00 | 0.00 | 70 | 1009.2 |
| 20260505001538 | 17 | 163 | 0.0 | 4.8 | 0.00 | 0.00 | 0.00 | 70 | 1009.2 |
| 20260505000039 | 17 | 162 | 1.6 | 4.8 | 0.00 | 0.00 | 0.00 | 68 | 1009.3 |
| 20260504234541 | 18 | 161 | 1.6 | 4.8 | 0.00 | 0.00 | 0.00 | 65 | 1009.4 |
| 20260504233054 | 18 | 161 | 1.6 | 4.8 | 0.00 | 0.00 | 0.00 | 64 | 1009.3 |
| 20260504231538 | 18 | 151 | 1.6 | 4.8 | 0.00 | 0.00 | 0.00 | 63 | 1009.5 |
| 20260504230035 | 18 | 147 | 1.6 | 3.2 | 0.00 | 0.00 | 0.00 | 63 | 1009.5 |
| 20260504224536 | 18 | 140 | 1.6 | 4.8 | 0.00 | 0.00 | 0.00 | 65 | 1009.8 |
| 20260504223052 | 18 | 160 | 1.6 | 4.8 | 0.00 | 0.00 | 0.00 | 65 | 1009.7 |
| 20260504221546 | 18 | 159 | 1.6 | 4.8 | 0.00 | 0.00 | 0.00 | 65 | 1009.8 |
| 20260504220058 | 18 | 157 | 1.6 | 3.2 | 0.00 | 0.00 | 0.00 | 65 | 1009.8 |
| 20260504214544 | 19 | 161 | 1.6 | 4.8 | 0.00 | 0.00 | 0.00 | 66 | 1009.8 |
| 20260504213037 | 18 | 162 | 1.6 | 3.2 | 0.00 | 0.00 | 0.00 | 66 | 1009.9 |
| 20260504211536 | 17 | 162 | 1.6 | 3.2 | 0.00 | 0.00 | 0.00 | 67 | 1009.7 |
| 20260504210037 | 17 | 163 | 1.6 | 4.8 | 0.00 | 0.00 | 0.00 | 67 | 1009.8 |
| 20260504204557 | 16 | 159 | 1.6 | 6.4 | 0.00 | 0.00 | 0.00 | 69 | 1010.1 |
| 20260504203041 | 16 | 168 | 1.6 | 6.4 | 0.00 | 0.00 | 0.00 | 71 | 1010.2 |
| 20260504201538 | 16 | 180 | 1.6 | 4.8 | 0.00 | 0.00 | 0.00 | 68 | 1010.4 |
| 20260504200042 | 16 | 182 | 1.6 | 4.8 | 0.00 | 0.00 | 0.00 | 68 | 1010.3 |
| 20260504194541 | 17 | 173 | 1.6 | 3.2 | 0.00 | 0.00 | 0.00 | 67 | 1010.3 |
| 20260504193037 | 17 | 0 | 1.6 | 6.4 | 0.00 | 0.00 | 0.00 | 65 | 1010.3 |
| 20260504191542 | 17 | 161 | 0.0 | 4.8 | 0.00 | 0.00 | 0.00 | 71 | 1010.3 |
| 20260504190041 | 17 | 167 | 1.6 | 4.8 | 0.00 | 0.00 | 0.00 | 66 | 1010.4 |
| 20260504184539 | 17 | 167 | 1.6 | 4.8 | 0.00 | 0.00 | 0.00 | 67 | 1010.4 |
| 20260504183037 | 17 | 155 | 1.6 | 4.8 | 0.00 | 0.00 | 0.00 | 69 | 1010.2 |
| 20260504181543 | 17 | 0 | 1.6 | 4.8 | 0.00 | 0.00 | 0.00 | 68 | 1010.2 |
| 20260504180045 | 17 | 153 | 1.6 | 3.2 | 0.00 | 0.00 | 0.00 | 70 | 1010.4 |
| 20260504174540 | 16 | 151 | 1.6 | 3.2 | 0.00 | 0.00 | 0.00 | 71 | 1010.5 |
| 20260504173038 | 16 | 0 | 1.6 | 4.8 | 0.00 | 0.00 | 0.00 | 72 | 1010.5 |
| 20260504171538 | 15 | 149 | 0.0 | 3.2 | 0.00 | 0.00 | 0.00 | 75 | 1010.5 |
| 20260504081547 | 12 | 0 | 0.0 | 0.0 | 0.00 | 0.00 | 0.00 | 72 | 1008.8 |
| 20260504044542 | 15 | 139 | 0.0 | 1.6 | 0.00 | 0.00 | 0.00 | 63 | 1009.0 |
| 20260504043046 | 15 | 0 | 0.0 | 1.6 | 0.00 | 0.00 | 0.00 | 63 | 1008.9 |
| 20260504041537 | 15 | 0 | 0.0 | 1.6 | 0.00 | 0.00 | 0.00 | 65 | 1009.0 |
| 20260504040038 | 16 | 138 | 0.0 | 1.6 | 0.00 | 0.00 | 0.00 | 65 | 1008.9 |